Location: Argonnex
(45.9500°N, 6.1333°E)
Time: 06:09:36
(UTC+00:00)

Cosmos 2266 Rocket - Pass Details

Date: 06 August 2024
Orbit: 933 x 1008 km, 82.9° (Epoch: 08 September)

Event Time Altitude Azimuth Distance (km) Brightness Sun altitude
Rises 00:04:14 0° 4° (N) 3,605 8.3 -27.2°
Reaches altitude 10° 00:07:54 10° 26° (NNE) 2,652 7.2 -27.2°
Maximum altitude 00:11:24 16° 62° (ENE) 2,263 6.3 -27.1°
Drops below altitude 10° 00:14:53 10° 98° (E) 2,646 6.3 -27.0°
Enters shadow 00:16:47 - 111° (ESE) 3,097 6.5 -26.9°
